STARLINK-1751 (46378 NORAD) Tracking and Keplerian Element Data

This shows tracking and keplerian element data for the satellite.

Feedback or suggestion? Click here.




ElementValue
Catalog46378
NameSTARLINK-1751
Epoch Orbit177
Epoch Day267.58334491
Epoch Year2020
RAAN330.2568
Inclination53.0011
Eccentricity0.000101
Argument of Perigee40.5242
Mean Anonmoly235.2127
Mean Motion15.62806846
Decay Rate-0.00049121
L11 46378U 20062BF 20267.58334491 -.00049121 00000-0 -53274-3 0 9995
L22 46378 53.0011 330.2568 0001010 40.5242 235.2127 15.62806846 1779

Live tracking and technical data element details for STARLINK-1751 (NORAD 46378). STARLINK-1751 can be tracked NOW for your location showing map with azimuth and elevation plus other details from your city location.

Track the satellite on the map from your city or location and see movement details for azimuth, elevation, latitude, longitude, range, height, and movement on the map or in text.







IsCatalogInMostPopularTable: catalog: 46378, numindb: 4
Update: records affected: 1



GetName: 46378 STARLINK-1751

Hit Count: updated at: Thu, 24 Sep 2020 19:01:15 GMT